Cairo, IL

2:03 AM CST on February 27, 2017 (GMT -0600)
Cairo Regional

Weather History for KCIR - February, 2014

Change the Weather History Date:

Tuesday, February 25, 2014

  Actual Average Record
Temperature  
Mean Temperature 37 °F -  
Max Temperature 44 °F 47 °F 73 °F (1981)
Min Temperature 30 °F 31 °F 8 °F (1967)
Degree Days  
Heating Degree Days 28    
Moisture  
Dew Point 20 °F    
Average Humidity 53    
Maximum Humidity 66    
Minimum Humidity 37    
Precipitation  
Precipitation 0.00 in - - ()
Sea Level Pressure  
Sea Level Pressure 30.21 in    
Wind  
Wind Speed 8 mph (NNE)    
Max Wind Speed 13 mph    
Max Gust Speed 17 mph    
Visibility 10 miles    
Events      
Averages and records for this station are not official NWS values.
T = Trace of Precipitation, MM = Missing Value Source: NWS Daily Summary

Daily Weather History Graph

Daily Weather History Graph

Search for Another Location

Airport or City:

Trip Planner

Search our weather history database for the weather conditions in past years. The results will help you decide how hot, cold, wet, or windy it might be!

Date:

Astronomy

Feb. 25, 2014 Rise Set
Actual Time 6:33 AM CST 5:47 PM CST
Civil Twilight 6:06 AM CST 6:13 PM CST
Nautical Twilight 5:36 AM CST 6:43 PM CST
Astronomical Twilight 5:06 AM CST 7:13 PM CST
Moon 3:24 AM CST (2/25) 1:56 PM CST (2/25)
Length of Visible Light 12h 06m
Length of Day
11h 13m
Waning Crescent, 18% of the Moon is Illuminated
Feb 25
Waning Crescent
Mar 1
New
Mar 8
First Quarter
Mar 16
Full
Mar 23
Last Quarter

Hourly Weather History & Observations

Time (CST) Temp. Windchill Dew Point Humidity Pressure Visibility Wind Dir Wind Speed Gust Speed Precip Events Conditions
12:15 AM 36.0 °F 30.3 °F 18.7 °F 50% 30.20 in 10.0 mi NNE 6.9 mph - N/A   Overcast
12:35 AM 35.6 °F 31.7 °F 19.0 °F 51% 30.20 in 10.0 mi NNE 4.6 mph - N/A   Overcast
12:55 AM 35.6 °F 30.7 °F 19.8 °F 53% 30.20 in 10.0 mi NE 5.8 mph - N/A   Overcast
1:15 AM 35.6 °F 30.7 °F 19.6 °F 52% 30.20 in 10.0 mi NNE 5.8 mph - N/A   Overcast
1:30 AM 35.6 °F 30.7 °F 20.1 °F 53% 30.19 in 10.0 mi ENE 5.8 mph - N/A   Overcast
1:55 AM 35.6 °F 28.6 °F 18.3 °F 50% 30.17 in 10.0 mi ENE 9.2 mph - N/A   Overcast
2:15 AM 35.6 °F 31.7 °F 18.5 °F 50% 30.17 in 10.0 mi NE 4.6 mph - N/A   Overcast
3:55 AM 34.7 °F 28.8 °F 20.3 °F 56% 30.19 in 10.0 mi North 6.9 mph - N/A   Overcast
4:15 AM 34.0 °F 29.8 °F 19.8 °F 56% 30.18 in 10.0 mi NE 4.6 mph - N/A   Overcast
4:30 AM 32.0 °F 26.4 °F 20.1 °F 62% 30.18 in 10.0 mi NE 5.8 mph - N/A   Scattered Clouds
4:55 AM 32.4 °F 29.1 °F 20.1 °F 61% 30.19 in 10.0 mi North 3.5 mph - N/A   Clear
5:15 AM 32.5 °F 29.3 °F 19.8 °F 59% 30.20 in 10.0 mi North 3.5 mph - N/A   Clear
5:35 AM 31.5 °F 26.8 °F 20.8 °F 65% 30.21 in 10.0 mi North 4.6 mph - N/A   Clear
5:55 AM 31.1 °F 27.7 °F 21.0 °F 66% 30.22 in 10.0 mi North 3.5 mph - N/A   Clear
6:15 AM 31.6 °F 27.0 °F 21.0 °F 65% 30.22 in 10.0 mi North 4.6 mph - N/A   Clear
6:35 AM 32.0 °F 24.2 °F 20.8 °F 63% 30.23 in 10.0 mi North 9.2 mph - N/A   Clear
6:55 AM 32.0 °F 24.2 °F 20.3 °F 62% 30.23 in 10.0 mi NNE 9.2 mph - N/A   Clear
7:15 AM 32.9 °F 25.9 °F 20.3 °F 60% 30.24 in 10.0 mi NNE 8.1 mph - N/A   Clear
7:35 AM 33.4 °F 24.3 °F 20.7 °F 59% 30.24 in 10.0 mi NNE 12.7 mph - N/A   Clear
7:55 AM 33.8 °F 25.8 °F 20.3 °F 58% 30.24 in 10.0 mi NNE 10.4 mph - N/A   Clear
8:15 AM 34.3 °F 26.5 °F 20.3 °F 57% 30.24 in 10.0 mi NE 10.4 mph - N/A   Clear
8:35 AM 35.4 °F 26.8 °F 19.8 °F 53% 30.24 in 10.0 mi NE 12.7 mph - N/A   Clear
8:55 AM 36.3 °F 29.5 °F 19.8 °F 51% 30.25 in 10.0 mi NE 9.2 mph - N/A   Clear
9:10 AM 36.7 °F 29.4 °F 19.4 °F 50% 30.25 in 10.0 mi NE 10.4 mph - N/A   Clear
9:35 AM 37.9 °F 31.5 °F 19.9 °F 48% 30.26 in 10.0 mi NNE 9.2 mph - N/A   Clear
9:55 AM 37.9 °F 32.1 °F 18.5 °F 46% 30.25 in 10.0 mi North 8.1 mph - N/A   Clear
10:15 AM 40.1 °F 34.1 °F 19.4 °F 43% 30.26 in 10.0 mi NE 9.2 mph - N/A   Clear
10:35 AM 40.6 °F 35.4 °F 18.5 °F 41% 30.25 in 10.0 mi NE 8.1 mph - N/A   Clear
11:15 AM 42.4 °F 36.5 °F 19.6 °F 40% 30.24 in 10.0 mi NNE 10.4 mph - N/A   Clear
11:35 AM 42.6 °F 36.3 °F 18.7 °F 38% 30.23 in 10.0 mi NE 11.5 mph - N/A   Clear
11:55 AM 42.8 °F 36.6 °F 18.5 °F 38% 30.22 in 10.0 mi NE 11.5 mph 17.3 mph N/A   Clear
12:15 PM 43.2 °F 39.0 °F 18.5 °F 37% 30.21 in 10.0 mi ENE 6.9 mph - N/A   Clear
12:35 PM 43.9 °F 38.3 °F 19.9 °F 38% 30.21 in 10.0 mi NE 10.4 mph - N/A   Clear
12:55 PM 43.2 °F 37.4 °F 19.0 °F 38% 30.20 in 10.0 mi North 10.4 mph - N/A   Clear
1:15 PM 43.3 °F 39.9 °F 19.4 °F 38% 30.20 in 10.0 mi NNE 5.8 mph - N/A   Clear
1:35 PM 43.0 °F 37.7 °F 20.3 °F 40% 30.19 in 10.0 mi North 9.2 mph - N/A   Clear
1:50 PM 42.8 °F 37.5 °F 20.7 °F 41% 30.19 in 10.0 mi North 9.2 mph - N/A   Clear
2:15 PM 44.1 °F 38.6 °F 21.7 °F 41% 30.19 in 10.0 mi North 10.4 mph - N/A   Clear
2:35 PM 42.8 °F 37.5 °F 20.3 °F 41% 30.19 in 10.0 mi North 9.2 mph - N/A   Clear
2:55 PM 42.1 °F 35.2 °F 20.5 °F 42% 30.19 in 10.0 mi North 12.7 mph - N/A   Scattered Clouds
3:15 PM 41.5 °F 34.6 °F 20.7 °F 43% 30.19 in 10.0 mi North 12.7 mph 17.3 mph N/A   Clear
3:35 PM 40.5 °F 33.2 °F 20.8 °F 46% 30.18 in 10.0 mi North 12.7 mph 17.3 mph N/A   Clear
3:55 PM 40.1 °F 34.1 °F 21.2 °F 47% 30.18 in 10.0 mi NNE 9.2 mph - N/A   Clear
4:15 PM 39.4 °F 32.7 °F 21.4 °F 49% 30.19 in 10.0 mi North 10.4 mph - N/A   Clear
4:35 PM 38.7 °F 30.9 °F 21.6 °F 50% 30.20 in 10.0 mi North 12.7 mph - N/A   Clear
4:55 PM 37.8 °F 30.2 °F 21.2 °F 51% 30.20 in 10.0 mi North 11.5 mph - N/A   Clear
5:15 PM 37.0 °F 29.3 °F 21.2 °F 53% 30.21 in 10.0 mi North 11.5 mph 16.1 mph N/A   Clear
5:35 PM 36.5 °F 29.7 °F 21.2 °F 54% 30.20 in 10.0 mi North 9.2 mph - N/A   Clear
5:55 PM 35.6 °F 27.1 °F 20.8 °F 55% 30.20 in 10.0 mi North 12.7 mph - N/A   Clear
6:15 PM 35.1 °F 26.4 °F 20.7 °F 56% 30.21 in 10.0 mi North 12.7 mph - N/A   Clear
6:35 PM 34.3 °F 26.5 °F 21.0 °F 58% 30.21 in 10.0 mi North 10.4 mph - N/A   Clear
6:55 PM 33.8 °F 25.3 °F 21.0 °F 60% 30.20 in 10.0 mi North 11.5 mph 16.1 mph N/A   Clear
7:15 PM 33.3 °F 25.1 °F 20.3 °F 59% 30.20 in 10.0 mi North 10.4 mph - N/A   Clear
7:35 PM 32.9 °F 24.1 °F 20.3 °F 60% 30.21 in 10.0 mi North 11.5 mph - N/A   Clear
7:55 PM 32.4 °F 24.6 °F 20.3 °F 61% 30.21 in 10.0 mi North 9.2 mph - N/A   Clear
8:15 PM 32.0 °F 24.2 °F 20.1 °F 62% 30.22 in 10.0 mi North 9.2 mph - N/A   Clear
8:35 PM 32.0 °F 24.8 °F 19.6 °F 60% 30.22 in 10.0 mi North 8.1 mph - N/A   Clear
8:55 PM 31.8 °F 22.8 °F 19.2 °F 60% 30.22 in 10.0 mi North 11.5 mph - N/A   Clear
9:15 PM 31.8 °F 23.3 °F 19.4 °F 60% 30.23 in 10.0 mi North 10.4 mph 16.1 mph N/A   Clear
9:35 PM 31.8 °F 22.3 °F 19.4 °F 60% 30.23 in 10.0 mi North 12.7 mph - N/A   Clear
9:55 PM 31.6 °F 23.1 °F 19.4 °F 61% 30.24 in 10.0 mi North 10.4 mph - N/A   Clear
10:15 PM 31.1 °F 21.4 °F 19.4 °F 62% 30.24 in 10.0 mi North 12.7 mph - N/A   Mostly Cloudy
10:35 PM 31.1 °F 21.9 °F 19.6 °F 62% 30.24 in 10.0 mi North 11.5 mph - N/A   Overcast
10:55 PM 30.7 °F 22.0 °F 19.9 °F 64% 30.24 in 10.0 mi North 10.4 mph - N/A   Scattered Clouds
11:15 PM 30.6 °F 22.4 °F 20.3 °F 66% 30.24 in 10.0 mi North 9.2 mph - N/A   Scattered Clouds
11:35 PM 30.6 °F 23.1 °F 20.5 °F 66% 30.24 in 10.0 mi North 8.1 mph 16.1 mph N/A   Mostly Cloudy
11:55 PM 30.2 °F 21.3 °F 20.1 °F 66% 30.24 in 10.0 mi NNW 10.4 mph - N/A   Mostly Cloudy